| time (UTC) | temp F | wind direction | speed MPH | gust MPH | rain 1hr in | rain 24hr in | rain mn in | humidity % | barometer mb |
| 20260507201550 | 62 | 123 | 0.0 | 2.0 | 0.00 | 0.00 | 0.00 | 79 | 1012.8 |
| 20260507200045 | 63 | 134 | 0.0 | 1.0 | 0.00 | 0.00 | 0.00 | 77 | 1012.7 |
| 20260507194555 | 63 | 128 | 0.0 | 1.0 | 0.00 | 0.00 | 0.00 | 76 | 1012.5 |
| 20260507193043 | 64 | 131 | 0.0 | 1.0 | 0.00 | 0.00 | 0.00 | 74 | 1012.4 |
| 20260507191546 | 65 | 152 | 0.0 | 6.0 | 0.00 | 0.00 | 0.00 | 72 | 1012.3 |
| 20260507190047 | 65 | 161 | 0.0 | 6.0 | 0.00 | 0.00 | 0.00 | 70 | 1012.1 |
| 20260507184539 | 66 | 126 | 0.0 | 4.0 | 0.00 | 0.00 | 0.00 | 69 | 1011.8 |
| 20260507183040 | 67 | 139 | 0.0 | 0.0 | 0.00 | 0.00 | 0.00 | 68 | 1011.7 |
| 20260507181541 | 68 | 119 | 1.0 | 5.0 | 0.00 | 0.00 | 0.00 | 68 | 1011.6 |
| 20260507180042 | 69 | 137 | 2.0 | 7.0 | 0.00 | 0.00 | 0.00 | 67 | 1011.4 |
| 20260507174543 | 70 | 135 | 3.0 | 7.0 | 0.00 | 0.00 | 0.00 | 65 | 1011.2 |
| 20260507173137 | 71 | 136 | 1.0 | 9.0 | 0.00 | 0.00 | 0.00 | 64 | 1010.9 |
| 20260507171541 | 72 | 117 | 2.0 | 9.0 | 0.00 | 0.00 | 0.00 | 60 | 1010.9 |
| 20260507170039 | 74 | 134 | 1.0 | 10.0 | 0.00 | 0.00 | 0.00 | 56 | 1010.8 |
| 20260507164536 | 74 | 193 | 1.0 | 7.0 | 0.00 | 0.00 | 0.00 | 49 | 1010.7 |
| 20260507163037 | 75 | 134 | 0.0 | 6.0 | 0.00 | 0.00 | 0.00 | 48 | 1010.6 |
| 20260507161541 | 75 | 121 | 1.0 | 5.0 | 0.00 | 0.00 | 0.00 | 48 | 1010.6 |
| 20260507160032 | 75 | 144 | 3.0 | 7.0 | 0.00 | 0.00 | 0.00 | 47 | 1010.7 |
| 20260507154532 | 76 | 118 | 0.0 | 6.0 | 0.00 | 0.00 | 0.00 | 46 | 1010.7 |
| 20260507153032 | 76 | 225 | 0.0 | 5.0 | 0.00 | 0.00 | 0.00 | 47 | 1010.9 |
| 20260507151531 | 75 | 128 | 0.0 | 4.0 | 0.00 | 0.00 | 0.00 | 47 | 1010.9 |
| 20260507150038 | 76 | 107 | 1.0 | 4.0 | 0.00 | 0.00 | 0.00 | 46 | 1010.9 |
| 20260507144531 | 76 | 169 | 1.0 | 7.0 | 0.00 | 0.00 | 0.00 | 46 | 1010.9 |
| 20260507143030 | 76 | 117 | 0.0 | 4.0 | 0.00 | 0.00 | 0.00 | 46 | 1011.0 |
| 20260507141542 | 76 | 218 | 0.0 | 4.0 | 0.00 | 0.00 | 0.00 | 46 | 1011.0 |
| 20260507140027 | 77 | 207 | 1.0 | 4.0 | 0.00 | 0.00 | 0.00 | 45 | 1011.1 |
| 20260507134526 | 76 | 242 | 1.0 | 8.0 | 0.00 | 0.00 | 0.00 | 45 | 1011.1 |
| 20260507133030 | 75 | 198 | 1.0 | 8.0 | 0.00 | 0.00 | 0.00 | 46 | 1011.1 |
| 20260507131521 | 75 | 121 | 1.0 | 8.0 | 0.00 | 0.00 | 0.00 | 47 | 1011.2 |
| 20260507130019 | 75 | 131 | 1.0 | 5.0 | 0.00 | 0.00 | 0.00 | 47 | 1011.2 |
| 20260507124517 | 74 | 151 | 0.0 | 5.0 | 0.00 | 0.01 | 0.00 | 46 | 1011.3 |
| 20260507123015 | 74 | 98 | 1.0 | 6.0 | 0.00 | 0.01 | 0.00 | 49 | 1011.2 |
| 20260507121515 | 74 | 121 | 0.0 | 7.0 | 0.00 | 0.01 | 0.00 | 49 | 1011.4 |
| 20260507120014 | 74 | 207 | 0.0 | 8.0 | 0.00 | 0.01 | 0.00 | 49 | 1011.5 |
| 20260507114513 | 74 | 129 | 1.0 | 4.0 | 0.00 | 0.01 | 0.00 | 50 | 1011.6 |
| 20260507113013 | 74 | 313 | 0.0 | 5.0 | 0.00 | 0.01 | 0.00 | 48 | 1011.7 |
| 20260507111509 | 73 | 134 | 0.0 | 6.0 | 0.00 | 0.01 | 0.00 | 49 | 1011.9 |
| 20260507110007 | 72 | 147 | 0.0 | 7.0 | 0.00 | 0.01 | 0.00 | 51 | 1012.0 |
| 20260507104505 | 72 | 121 | 0.0 | 3.0 | 0.00 | 0.01 | 0.00 | 51 | 1012.1 |
| 20260507103004 | 71 | 267 | 2.0 | 8.0 | 0.00 | 0.01 | 0.00 | 52 | 1012.2 |
| 20260507101502 | 72 | 294 | 0.0 | 6.0 | 0.00 | 0.01 | 0.00 | 53 | 1012.3 |
| 20260507100059 | 71 | 286 | 0.0 | 5.0 | 0.00 | 0.01 | 0.00 | 56 | 1012.4 |
| 20260507094600 | 70 | 170 | 0.0 | 6.0 | 0.00 | 0.03 | 0.00 | 57 | 1012.4 |
| 20260507093051 | 69 | 271 | 0.0 | 3.0 | 0.00 | 0.03 | 0.00 | 62 | 1012.4 |
| 20260507091549 | 68 | 320 | 1.0 | 7.0 | 0.00 | 0.03 | 0.00 | 62 | 1012.4 |
| 20260507090045 | 67 | 282 | 0.0 | 4.0 | 0.00 | 0.03 | 0.00 | 66 | 1012.4 |
| 20260507084541 | 66 | 281 | 1.0 | 8.0 | 0.00 | 0.05 | 0.00 | 67 | 1012.3 |
| 20260507083037 | 65 | 313 | 0.0 | 4.0 | 0.00 | 0.05 | 0.00 | 67 | 1012.3 |
| 20260507081538 | 64 | 279 | 0.0 | 4.0 | 0.00 | 0.05 | 0.00 | 70 | 1012.2 |
| 20260507080030 | 64 | 306 | 0.0 | 4.0 | 0.00 | 0.05 | 0.00 | 71 | 1012.1 |
| 20260507074528 | 63 | 254 | 1.0 | 6.0 | 0.00 | 0.06 | 0.00 | 70 | 1012.2 |
| 20260507073026 | 63 | 293 | 0.0 | 4.0 | 0.00 | 0.06 | 0.00 | 70 | 1012.2 |
| 20260507071525 | 62 | 282 | 0.0 | 2.0 | 0.00 | 0.06 | 0.00 | 71 | 1012.1 |
| 20260507070033 | 61 | 292 | 0.0 | 4.0 | 0.00 | 0.06 | 0.00 | 72 | 1011.9 |
| 20260507064518 | 61 | 297 | 0.0 | 4.0 | 0.00 | 0.09 | 0.00 | 73 | 1011.9 |
| 20260507063015 | 60 | 289 | 0.0 | 2.0 | 0.00 | 0.09 | 0.00 | 76 | 1011.8 |
| 20260507061513 | 59 | 231 | 0.0 | 4.0 | 0.00 | 0.09 | 0.00 | 78 | 1011.7 |
| 20260507060018 | 57 | 281 | 0.0 | 2.0 | 0.00 | 0.09 | 0.00 | 84 | 1011.5 |
| 20260507054509 | 55 | 266 | 0.0 | 2.0 | 0.00 | 0.13 | 0.00 | 88 | 1011.4 |
| 20260507053007 | 54 | 263 | 0.0 | 0.0 | 0.00 | 0.13 | 0.00 | 90 | 1011.3 |
| 20260507051505 | 53 | 263 | 0.0 | 0.0 | 0.00 | 0.13 | 0.00 | 91 | 1011.1 |
| 20260507050012 | 53 | 263 | 0.0 | 0.0 | 0.00 | 0.13 | 0.00 | 90 | 1010.9 |
| 20260507044502 | 52 | 263 | 0.0 | 0.0 | 0.00 | 0.28 | 0.00 | 89 | 1010.7 |
| 20260507043002 | 52 | 263 | 0.0 | 0.0 | 0.00 | 0.28 | 0.00 | 88 | 1010.6 |
| 20260507041559 | 52 | 263 | 0.0 | 0.0 | 0.00 | 0.28 | 0.00 | 87 | 1010.5 |
| 20260507040105 | 53 | 263 | 0.0 | 0.0 | 0.00 | 0.28 | 0.00 | 87 | 1010.3 |
| 20260507034602 | 53 | 263 | 0.0 | 1.0 | 0.00 | 0.28 | 0.00 | 86 | 1010.3 |
| 20260507033105 | 54 | 271 | 0.0 | 0.0 | 0.00 | 0.28 | 0.00 | 87 | 1010.2 |
| 20260507031600 | 54 | 271 | 0.0 | 0.0 | 0.00 | 0.28 | 0.00 | 86 | 1010.2 |
| 20260507030107 | 54 | 271 | 0.0 | 0.0 | 0.00 | 0.28 | 0.00 | 85 | 1010.2 |
| 20260507024606 | 54 | 271 | 0.0 | 1.0 | 0.00 | 0.35 | 0.00 | 86 | 1010.1 |
| 20260507023049 | 54 | 157 | 0.0 | 0.0 | 0.00 | 0.35 | 0.00 | 85 | 1010.1 |
| 20260507021554 | 54 | 155 | 0.0 | 0.0 | 0.00 | 0.35 | 0.00 | 85 | 1010.2 |
| 20260507020056 | 55 | 155 | 0.0 | 0.0 | 0.00 | 0.35 | 0.00 | 84 | 1010.2 |
| 20260507014552 | 55 | 155 | 0.0 | 0.0 | 0.00 | 0.44 | 0.00 | 83 | 1010.1 |
| 20260507013042 | 56 | 155 | 0.0 | 0.0 | 0.00 | 0.44 | 0.00 | 82 | 1009.9 |
| 20260507011546 | 56 | 155 | 0.0 | 0.0 | 0.00 | 0.44 | 0.00 | 81 | 1009.9 |
| 20260507010043 | 56 | 155 | 0.0 | 1.0 | 0.00 | 0.44 | 0.00 | 81 | 1009.8 |
| 20260507004536 | 57 | 195 | 0.0 | 0.0 | 0.00 | 0.44 | 0.00 | 81 | 1009.7 |
| 20260507003036 | 57 | 175 | 0.0 | 0.0 | 0.00 | 0.44 | 0.00 | 80 | 1009.8 |
| 20260507001536 | 57 | 173 | 0.0 | 1.0 | 0.00 | 0.44 | 0.00 | 80 | 1009.8 |
| 20260507000134 | 57 | 157 | 0.0 | 0.0 | 0.00 | 0.44 | 0.00 | 80 | 1009.8 |
| 20260506234541 | 57 | 157 | 0.0 | 1.0 | 0.00 | 0.44 | 0.00 | 79 | 1009.9 |
| 20260506233032 | 57 | 242 | 0.0 | 0.0 | 0.00 | 0.44 | 0.00 | 79 | 1009.8 |
| 20260506231533 | 57 | 243 | 0.0 | 1.0 | 0.00 | 0.44 | 0.00 | 79 | 1009.8 |
| 20260506230028 | 58 | 140 | 0.0 | 0.0 | 0.00 | 0.44 | 0.00 | 79 | 1009.7 |
| 20260506224527 | 58 | 140 | 0.0 | 0.0 | 0.00 | 0.44 | 0.00 | 78 | 1009.7 |
| 20260506223026 | 58 | 140 | 0.0 | 2.0 | 0.00 | 0.44 | 0.00 | 79 | 1009.8 |
| 20260506221523 | 59 | 146 | 0.0 | 0.0 | 0.00 | 0.44 | 0.00 | 79 | 1009.8 |
| 20260506220021 | 59 | 146 | 0.0 | 2.0 | 0.00 | 0.44 | 0.00 | 77 | 1009.9 |
| 20260506214520 | 60 | 138 | 0.0 | 0.0 | 0.00 | 0.44 | 0.44 | 77 | 1009.6 |
| 20260506213019 | 60 | 138 | 0.0 | 2.0 | 0.00 | 0.44 | 0.44 | 76 | 1009.6 |
| 20260506211522 | 61 | 140 | 0.0 | 2.0 | 0.00 | 0.44 | 0.44 | 76 | 1009.4 |
| 20260506210019 | 61 | 140 | 0.0 | 2.0 | 0.00 | 0.44 | 0.44 | 76 | 1009.3 |
| 20260506204517 | 62 | 135 | 0.0 | 2.0 | 0.00 | 0.44 | 0.44 | 76 | 1009.2 |
| 20260506203016 | 62 | 121 | 0.0 | 3.0 | 0.00 | 0.44 | 0.44 | 76 | 1009.0 |